Location: Goettingen
(51.5300°N, 9.9433°E)
Time: 09:45:15
(UTC+02:00)

ISS - Pass Details

Date: 24 May 2018
Orbit: 402 x 407 km, 51.6° (Epoch: 27 May)

Event Time Altitude Azimuth Distance (km) Brightness Sun altitude
Rises 02:56:04 0° 283° (WNW) 2,321 -0.1 -14.6°
Reaches altitude 10° 02:58:18 10° 273° (W) 1,459 -1.2 -14.4°
Enters shadow 03:00:15 25° 242° (WSW) 863 -2.6 -14.3°
